Regional Weather Roundup
Issued by NWS

Home | Current Version | Previous Version | Graphics & Text | Print | Product List | Glossary On
Versions: 1 2 3 4 5 6 7 8 9 10 11 12 13 14 15 16 17 18 19 20 21 22 23 24 25 26 27 28 29 30 31 32 33 34 35 36 37 38 39 40 41 42 43 44 45 46 47 48 49 50
588
ASUS44 KLIX 051510
RWRLA
LOUISIANA WEATHER ROUNDUP
NATIONAL WEATHER SERVICE NEW ORLEANS LA
900 AM CST THU MAR 05 2015

NOTE: "FAIR" INDICATES FEW OR NO CLOUDS BELOW 12,000 FEET WITH NO
      SIGNIFICANT WEATHER AND/OR OBSTRUCTIONS TO VISIBILITY.
      SKY/WX - SKY CONDITION AND SIGNIFICANT WEATHER.
      TMP - AIR TEMPERATURE.    DP   - DEWPOINT TEMPERATURE.
      RH  - RELATIVE HUMIDITY.  PRES - PRESSURE.
      HX  - HEAT INDEX.         WCI  - WIND CHILL INDEX.

*  THESE STATIONS ARE NOT NWS OR FAA STATIONS AND ARE NOT UNDER
   NWS QUALITY CONTROL.

LAZ040-048-061>063-065-066-069-051600-
SOUTHEAST LOUISIANA

CITY           SKY/WX    TMP DP  RH WIND       PRES   REMARKS
N.O. AUDUBON     N/A     44  41  89 MISG        N/A
N.O. INTL ARPT LGT RAIN  43  39  86 N17G23    30.19R FOG
N.O. LAKEFRONT CLOUDY    46  39  76 N23       30.19S
SLIDELL        CLOUDY    42  40  92 N15G22    30.17S
BATON ROUGE    CLOUDY    37  34  89 N8G17     30.27R WCI  31
BOOTHVILLE     CLOUDY    49  47  93 NW24G37   30.13R
BELLE CHASSE   CLOUDY    45  42  89 VRB7G21   30.15S
BOGALUSA*      LGT RAIN  40  36  86 N10G16    30.23R WCI  33
GALLIANO*      CLOUDY    47  44  89 N18G28    30.15S
NEW ROADS*     DRIZZLE   36  32  87 N12G22    30.31R WCI  27
GONZALES*      CLOUDY    38  37  97 N12G17    30.23R WCI  31
HAMMOND*       CLOUDY    39  34  81 N15G23    30.24R WCI  31
HOUMA*         PTSUNNY   41  39  93 N17G29    30.18R FOG
PORT FOURCHON* CLOUDY    48  46  93 N22       30.17R FOG

$$

LAZ041-044-053-054-051600-
SOUTHWEST LOUISIANA

CITY           SKY/WX    TMP DP  RH WIND       PRES   REMARKS
LAKE CHARLES   HVY RAIN  38  35  89 N18G26    30.30R FOG     WCI  28
LAFAYETTE      LGT RAIN  37  34  89 N20G32    30.28R WCI  27
PATTERSON      CLOUDY    41  36  81 N16G25    30.19R
SALT POINT       N/A     42  38  85 N12G24    30.17R
NEW IBERIA     LGT RAIN  39  33  79 N23G33    30.25R WCI  28
CHENAULT AIRPK LGT RAIN  37  36  93 N16G22    30.32R FOG     WCI  28

$$

LAZ027-028-051600-
CENTRAL LOUISIANA

CITY           SKY/WX    TMP DP  RH WIND       PRES   REMARKS
FORT POLK      PTSUNNY   30  28  93 N17G30    30.38R FOG     WCI  18
ALEXANDRIA INT MIX PCPN  30  27  88 N15G25    30.41R WCI  19
ALEXANDRIA     MIX PCPN  32  27  81 N8G20     30.40R WCI  25

$$

LAZ001-002-051600-
NORTHWEST LOUISIANA

CITY           SKY/WX    TMP DP  RH WIND       PRES   REMARKS
SHREVEPORT     CLOUDY    28  21  75 NE13G28   30.52R WCI  17
BARKSDALE AFB  CLOUDY    27  20  72 NE12G29   30.53R WCI  17
DTN SHREVEPORT CLOUDY    27  19  72 N10G23    30.53R WCI  17

$$

LAZ014-016-051600-
NORTHEAST LOUISIANA

CITY           SKY/WX    TMP DP  RH WIND       PRES   REMARKS
MONROE         CLOUDY    27  22  81 N18G31    30.46R WCI  14
TALLULAH       CLOUDY    28  23  81 N22G31    30.40R WCI  14

$$




USA.gov is the U.S. government's official web portal to all federal, state and local government web resources and services.